Weather History for Knox, IN

Change the Weather History Date:

Sunday, January 13, 2013

  Actual Average (KVPZ) Record (KVPZ)
Temperature  
Mean Temperature 27 °F 23 °F  
Max Temperature 37 °F 31 °F 52 °F (2005)
Min Temperature 17 °F 16 °F -3 °F (2009)
Degree Days  
Heating Degree Days 38 42  
Month to date heating degree days 537  
Since 1 July heating degree days 2939  
Moisture  
Dew Point 29 °F    
Average Humidity 95    
Maximum Humidity 100    
Minimum Humidity 82    
Precipitation  
Precipitation 0.00 in 0.05 in 0.92 in (2005)
Month to date precipitation 0.70  
Year to date precipitation 0.70  
Sea Level Pressure  
Sea Level Pressure 29.97 in    
Wind  
Wind Speed 11 mph (NW)    
Max Wind Speed 18 mph    
Max Gust Speed 24 mph    
Visibility 6 miles    
Events      
T = Trace of Precipitation, MM = Missing Value Source: NWS Daily Summary

Daily Weather History Graph

Daily Weather History Graph

Search for Another Location

Airport:

Trip Planner

Search our weather history database for the weather conditions in past years. The results will help you decide how hot, cold, wet, or windy it might be!

Date:

Astronomy

Jan. 13, 2013 Rise Set
Actual Time 7:10 AM CST 4:40 PM CST
Civil Twilight 6:40 AM CST 5:10 PM CST
Nautical Twilight 6:06 AM CST 5:45 PM CST
Astronomical Twilight 5:33 AM CST 6:18 PM CST
Moon 8:07 AM CST (1/13) 7:20 PM CST (1/13)
Length of Visible Light 10h 30m
Length of Day
9h 29m
Waxing Crescent, 5% of the Moon is Illuminated
Jan 13
Waxing Crescent
Jan 18
First Quarter
Jan 26
Full
Feb 3
Last Quarter
Feb 10
New

Hourly Weather History & Observations

Time (CST) Temp. Windchill Dew Point Humidity Pressure Visibility Wind Dir Wind Speed Gust Speed Precip Events Conditions
12:15 AM 37.2 °F 28.7 °F 36.5 °F 97% 29.83 in 3.0 mi North 13.8 mph - N/A   Overcast
12:35 AM 36.7 °F 28.9 °F 36.1 °F 98% 29.82 in 3.0 mi North 11.5 mph - N/A   Overcast
12:55 AM 36.3 °F 28.0 °F 35.8 °F 98% 29.82 in 4.0 mi North 12.7 mph - N/A   Overcast
1:15 AM 36.0 °F 27.1 °F 35.4 °F 98% 29.83 in 7.0 mi North 13.8 mph 19.6 mph N/A   Overcast
1:35 AM 35.8 °F 26.9 °F 35.2 °F 98% 29.85 in 10.0 mi NNW 13.8 mph - N/A   Overcast
1:55 AM 35.8 °F 26.9 °F 35.1 °F 97% 29.85 in 10.0 mi North 13.8 mph - N/A   Overcast
2:15 AM 35.6 °F 25.9 °F 34.9 °F 97% 29.83 in 10.0 mi North 16.1 mph 19.6 mph N/A   Overcast
2:35 AM 35.6 °F 26.6 °F 34.7 °F 97% 29.84 in 10.0 mi North 13.8 mph 17.3 mph N/A   Overcast
2:55 AM 35.6 °F 26.2 °F 34.7 °F 97% 29.85 in 10.0 mi North 15.0 mph 18.4 mph N/A   Overcast
3:15 AM 35.6 °F 26.6 °F 34.7 °F 97% 29.86 in 10.0 mi North 13.8 mph - N/A   Overcast
3:35 AM 35.6 °F 28.0 °F 34.7 °F 97% 29.84 in 5.0 mi North 10.4 mph - N/A   Overcast
3:55 AM 35.6 °F 28.0 °F 34.9 °F 97% 29.83 in 5.0 mi NNE 10.4 mph - N/A   Overcast
4:15 AM 35.6 °F 29.2 °F 34.9 °F 97% 29.85 in 7.0 mi North 8.1 mph - N/A   Overcast
4:35 AM 35.6 °F 28.0 °F 34.9 °F 97% 29.84 in 10.0 mi North 10.4 mph - N/A   Overcast
4:55 AM 35.6 °F 29.9 °F 34.9 °F 97% 29.84 in 7.0 mi North 6.9 mph - N/A   Overcast
5:15 AM 35.6 °F 31.7 °F 35.1 °F 98% 29.85 in 5.0 mi North 4.6 mph - N/A   Overcast
5:35 AM 35.6 °F 31.7 °F 35.2 °F 99% 29.88 in 5.0 mi NW 4.6 mph - N/A   Overcast
5:55 AM 35.6 °F 31.7 °F 35.4 °F 99% 29.90 in 2.5 mi West 4.6 mph - N/A   Overcast
6:15 AM 35.8 °F 30.9 °F 35.4 °F 99% 29.91 in 2.0 mi West 5.8 mph - N/A   Overcast
6:35 AM 35.8 °F 31.9 °F 35.6 °F 99% 29.91 in 2.0 mi West 4.6 mph - N/A   Overcast
6:55 AM 35.6 °F 30.7 °F 35.6 °F 100% 29.90 in 3.0 mi NW 5.8 mph - N/A   Overcast
7:15 AM 35.6 °F 32.8 °F 35.6 °F 100% 29.91 in 3.0 mi NW 3.5 mph - N/A   Overcast
7:35 AM 35.6 °F 29.9 °F 35.6 °F 100% 29.92 in 1.8 mi WNW 6.9 mph - N/A   Overcast
7:55 AM 35.6 °F 29.2 °F 35.4 °F 99% 29.93 in 1.8 mi WNW 8.1 mph - N/A   Overcast
8:15 AM 35.6 °F 28.6 °F 35.2 °F 99% 29.93 in 1.5 mi WNW 9.2 mph - N/A   Overcast
8:35 AM 35.6 °F 28.0 °F 35.4 °F 99% 29.94 in 2.0 mi NW 10.4 mph - N/A   Overcast
8:55 AM 34.0 °F 24.2 °F 33.8 °F 99% 29.94 in 1.8 mi NW 15.0 mph - N/A   Overcast
9:15 AM 32.7 °F 22.5 °F 32.4 °F 99% 29.94 in 2.5 mi NNW 15.0 mph - N/A   Overcast
9:35 AM 32.2 °F 23.2 °F 32.0 °F 99% 29.93 in 2.5 mi NNW 11.5 mph - N/A   Overcast
9:55 AM 32.0 °F 23.0 °F 32.0 °F 100% 29.95 in 2.5 mi NNW 11.5 mph - N/A   Overcast
10:15 AM 32.2 °F 22.7 °F 32.0 °F 99% 29.98 in 4.0 mi WNW 12.7 mph - N/A   Overcast
10:55 AM 31.8 °F 22.8 °F 31.5 °F 99% 29.96 in 5.0 mi NW 11.5 mph - N/A   Overcast
11:15 AM 31.6 °F 22.6 °F 31.1 °F 98% 29.93 in 5.0 mi NNW 11.5 mph - N/A   Overcast
11:35 AM 31.8 °F 22.8 °F 31.3 °F 98% 29.93 in 5.0 mi NNW 11.5 mph - N/A   Overcast
11:55 AM 32.0 °F 23.0 °F 31.5 °F 98% 29.91 in 10.0 mi NNW 11.5 mph - N/A   Overcast
12:15 PM 32.0 °F 23.0 °F 31.3 °F 97% 29.92 in 10.0 mi NNW 11.5 mph - N/A   Overcast
12:35 PM 31.8 °F 21.4 °F 31.1 °F 97% 29.95 in 7.0 mi NNW 15.0 mph - N/A   Overcast
12:55 PM 31.6 °F 21.2 °F 30.9 °F 97% 29.94 in 1.2 mi NW 15.0 mph - N/A   Overcast
1:15 PM 31.1 °F 22.4 °F 30.7 °F 99% 29.97 in 1.5 mi NW 10.4 mph - N/A   Overcast
1:35 PM 31.1 °F 22.4 °F 30.6 °F 98% 29.96 in 2.0 mi NW 10.4 mph - N/A   Overcast
1:55 PM 30.7 °F 23.3 °F 30.2 °F 98% 29.94 in 2.5 mi NNW 8.1 mph - N/A   Overcast
2:15 PM 30.6 °F 23.8 °F 30.0 °F 98% 29.96 in 2.5 mi NW 6.9 mph - N/A   Overcast
2:35 PM 30.4 °F 24.5 °F 29.7 °F 97% 29.97 in 3.0 mi NW 5.8 mph - N/A   Overcast
3:15 PM 30.2 °F 24.3 °F 29.3 °F 96% 29.98 in 7.0 mi NW 5.8 mph - N/A   Overcast
3:35 PM 30.2 °F 24.3 °F 29.1 °F 96% 29.99 in 7.0 mi WNW 5.8 mph - N/A   Overcast
3:55 PM 30.2 °F 24.3 °F 29.1 °F 96% 29.99 in 2.0 mi WNW 5.8 mph - N/A   Overcast
4:15 PM 29.8 °F 21.5 °F 28.9 °F 96% 30.00 in 3.0 mi West 9.2 mph - N/A   Overcast
4:35 PM 29.5 °F 21.1 °F 28.6 °F 96% 30.01 in 2.0 mi WNW 9.2 mph - N/A   Overcast
4:55 PM 28.9 °F 19.2 °F 28.0 °F 96% 30.03 in 7.0 mi West 11.5 mph - N/A   Overcast
5:15 PM 28.0 °F 17.5 °F 26.8 °F 95% 30.04 in 10.0 mi West 12.7 mph - N/A   Overcast
5:35 PM 27.1 °F 16.4 °F 25.5 °F 94% 30.06 in 7.0 mi West 12.7 mph - N/A   Overcast
5:55 PM 26.2 °F 14.2 °F 24.6 °F 94% 30.06 in 10.0 mi West 15.0 mph - N/A   Overcast
6:15 PM 25.7 °F 12.7 °F 23.4 °F 91% 30.07 in 10.0 mi West 17.3 mph 20.7 mph N/A   Overcast
6:35 PM 24.8 °F 11.5 °F 21.7 °F 88% 30.09 in 10.0 mi West 17.3 mph - N/A   Overcast
6:55 PM 24.4 °F 11.9 °F 21.4 °F 88% 30.10 in 10.0 mi West 15.0 mph 24.2 mph N/A   Overcast
7:15 PM 23.5 °F 10.8 °F 20.7 °F 89% 30.10 in 10.0 mi West 15.0 mph 23.0 mph N/A   Overcast
7:35 PM 23.0 °F 8.7 °F 19.8 °F 87% 30.11 in 10.0 mi West 18.4 mph 24.2 mph N/A   Overcast
7:55 PM 22.5 °F 8.9 °F 19.4 °F 88% 30.11 in 10.0 mi West 16.1 mph - N/A   Overcast
8:15 PM 21.9 °F 7.8 °F 18.5 °F 87% 30.13 in 10.0 mi West 17.3 mph 20.7 mph N/A   Overcast
8:35 PM 21.2 °F 8.3 °F 17.6 °F 86% 30.14 in 10.0 mi West 13.8 mph - N/A   Overcast
8:55 PM 20.8 °F 7.9 °F 16.7 °F 84% 30.14 in 10.0 mi West 13.8 mph - N/A   Overcast
9:15 PM 20.5 °F 8.0 °F 16.9 °F 86% 30.15 in 10.0 mi West 12.7 mph 17.3 mph N/A   Overcast
9:35 PM 19.9 °F 6.2 °F 16.3 °F 86% 30.16 in 10.0 mi West 15.0 mph 19.6 mph N/A   Overcast
9:55 PM 19.0 °F 7.5 °F 14.9 °F 84% 30.17 in 10.0 mi WNW 10.4 mph - N/A   Mostly Cloudy
10:35 PM 18.5 °F 6.1 °F 14.2 °F 83% 30.18 in 10.0 mi West 11.5 mph - N/A   Overcast
10:55 PM 18.1 °F 5.0 °F 13.6 °F 83% 30.20 in 10.0 mi West 12.7 mph - N/A   Mostly Cloudy
11:35 PM 17.4 °F 4.7 °F 12.7 °F 82% 30.21 in 10.0 mi West 11.5 mph - N/A   Overcast
11:55 PM 17.1 °F 5.8 °F 12.7 °F 83% 30.23 in 10.0 mi West 9.2 mph - N/A   Overcast